| time (UTC) | temp F | wind direction | speed MPH | gust MPH | rain 1hr in | rain 24hr in | rain mn in | humidity % | barometer mb |
| 20260510180348 | 73 | 46 | 2.0 | 9.0 | 0.00 | 0.31 | 0.00 | 58 | 1012.8 |
| 20260510175848 | 73 | 231 | 2.0 | 9.0 | 0.00 | 0.31 | 0.00 | 60 | 1012.7 |
| 20260510175606 | 73 | 214 | 2.0 | 9.0 | 0.00 | 0.31 | 0.00 | 59 | 1012.7 |
| 20260510174848 | 74 | 185 | 2.0 | 5.0 | 0.00 | 0.31 | 0.00 | 64 | 1012.5 |
| 20260510174403 | 73 | 31 | 1.0 | 6.0 | 0.00 | 0.31 | 0.00 | 64 | 1012.5 |
| 20260510174105 | 73 | 219 | 1.0 | 6.0 | 0.00 | 0.31 | 0.00 | 67 | 1012.4 |
| 20260510174022 | 73 | 247 | 2.0 | 6.0 | 0.00 | 0.31 | 0.00 | 68 | 1012.4 |
| 20260510173115 | 73 | 265 | 1.0 | 6.0 | 0.00 | 0.31 | 0.00 | 68 | 1012.3 |
| 20260510172350 | 72 | 103 | 1.0 | 6.0 | 0.00 | 0.31 | 0.00 | 69 | 1012.3 |
| 20260510172115 | 71 | 94 | 1.0 | 6.0 | 0.00 | 0.31 | 0.00 | 71 | 1012.4 |
| 20260510171349 | 71 | 92 | 1.0 | 6.0 | 0.00 | 0.31 | 0.00 | 73 | 1012.4 |
| 20260510171116 | 71 | 85 | 1.0 | 6.0 | 0.00 | 0.31 | 0.00 | 72 | 1012.5 |
| 20260510170641 | 70 | 92 | 1.0 | 4.0 | 0.00 | 0.31 | 0.00 | 76 | 1012.6 |
| 20260510170113 | 70 | 71 | 1.0 | 3.0 | 0.00 | 0.31 | 0.00 | 75 | 1012.6 |
| 20260510165350 | 70 | 71 | 1.0 | 4.0 | 0.00 | 0.31 | 0.00 | 73 | 1012.7 |
| 20260510164848 | 70 | 85 | 1.0 | 4.0 | 0.00 | 0.31 | 0.00 | 75 | 1012.7 |
| 20260510164350 | 69 | 226 | 1.0 | 8.0 | 0.00 | 0.31 | 0.00 | 75 | 1012.9 |
| 20260510163849 | 69 | 227 | 1.0 | 8.0 | 0.00 | 0.31 | 0.00 | 74 | 1013.0 |
| 20260510163348 | 69 | 53 | 1.0 | 8.0 | 0.00 | 0.31 | 0.00 | 75 | 1013.0 |
| 20260510162848 | 68 | 60 | 1.0 | 8.0 | 0.00 | 0.31 | 0.00 | 75 | 1013.0 |
| 20260510162350 | 68 | 122 | 1.0 | 4.0 | 0.00 | 0.31 | 0.00 | 79 | 1013.1 |
| 20260510162113 | 68 | 105 | 2.0 | 4.0 | 0.00 | 0.31 | 0.00 | 75 | 1013.2 |
| 20260510161348 | 68 | 94 | 1.0 | 4.0 | 0.00 | 0.31 | 0.00 | 78 | 1013.1 |
| 20260510160848 | 67 | 200 | 1.0 | 4.0 | 0.00 | 0.31 | 0.00 | 80 | 1013.1 |
| 20260510160610 | 67 | 167 | 1.0 | 4.0 | 0.00 | 0.31 | 0.00 | 81 | 1013.2 |
| 20260510155848 | 66 | 103 | 1.0 | 6.0 | 0.00 | 0.31 | 0.00 | 80 | 1013.1 |
| 20260510155349 | 66 | 59 | 1.0 | 6.0 | 0.00 | 0.31 | 0.00 | 80 | 1013.1 |
| 20260510154850 | 65 | 93 | 1.0 | 6.0 | 0.00 | 0.31 | 0.00 | 79 | 1013.1 |
| 20260510154607 | 65 | 242 | 2.0 | 6.0 | 0.00 | 0.31 | 0.00 | 81 | 1013.0 |
| 20260510154104 | 65 | 231 | 1.0 | 5.0 | 0.00 | 0.31 | 0.00 | 81 | 1013.1 |
| 20260510153346 | 64 | 225 | 2.0 | 5.0 | 0.00 | 0.31 | 0.00 | 81 | 1013.1 |
| 20260510153109 | 64 | 214 | 1.0 | 4.0 | 0.00 | 0.31 | 0.00 | 81 | 1013.2 |
| 20260510152616 | 64 | 39 | 1.0 | 4.0 | 0.00 | 0.31 | 0.00 | 82 | 1013.2 |
| 20260510151846 | 63 | 115 | 1.0 | 5.0 | 0.00 | 0.31 | 0.00 | 83 | 1013.1 |
| 20260510151348 | 62 | 288 | 1.0 | 5.0 | 0.00 | 0.31 | 0.00 | 86 | 1013.1 |
| 20260510150844 | 62 | 181 | 1.0 | 5.0 | 0.00 | 0.31 | 0.00 | 85 | 1013.0 |
| 20260510150358 | 61 | 233 | 2.0 | 5.0 | 0.00 | 0.31 | 0.00 | 85 | 1013.0 |
| 20260510145845 | 61 | 43 | 2.0 | 5.0 | 0.00 | 0.31 | 0.00 | 86 | 1013.2 |
| 20260510145345 | 60 | 37 | 1.0 | 5.0 | 0.00 | 0.31 | 0.00 | 86 | 1013.2 |
| 20260510144845 | 60 | 235 | 1.0 | 4.0 | 0.00 | 0.31 | 0.00 | 87 | 1013.3 |
| 20260510144544 | 59 | 232 | 0.0 | 4.0 | 0.00 | 0.31 | 0.00 | 87 | 1013.3 |
| 20260510144435 | 59 | 125 | 1.0 | 4.0 | 0.00 | 0.31 | 0.00 | 87 | 1013.4 |
| 20260510143345 | 59 | 227 | 0.0 | 4.0 | 0.00 | 0.31 | 0.00 | 88 | 1013.4 |
| 20260510143107 | 59 | 84 | 1.0 | 3.0 | 0.00 | 0.31 | 0.00 | 87 | 1013.1 |
| 20260510142602 | 59 | 84 | 1.0 | 5.0 | 0.00 | 0.31 | 0.00 | 86 | 1013.2 |
| 20260510141839 | 59 | 180 | 1.0 | 5.0 | 0.00 | 0.31 | 0.00 | 86 | 1013.1 |
| 20260510141338 | 59 | 143 | 1.0 | 5.0 | 0.00 | 0.31 | 0.00 | 86 | 1013.1 |
| 20260510140841 | 59 | 193 | 2.0 | 6.0 | 0.00 | 0.31 | 0.00 | 87 | 1013.3 |
| 20260510140337 | 59 | 94 | 2.0 | 6.0 | 0.00 | 0.31 | 0.00 | 89 | 1013.2 |
| 20260510135839 | 58 | 105 | 2.0 | 6.0 | 0.00 | 0.31 | 0.00 | 89 | 1013.1 |
| 20260510135606 | 58 | 103 | 2.0 | 6.0 | 0.00 | 0.31 | 0.00 | 91 | 1013.1 |
| 20260510134837 | 58 | 121 | 1.0 | 6.0 | 0.00 | 0.31 | 0.00 | 91 | 1013.0 |
| 20260510134607 | 58 | 71 | 0.0 | 4.0 | 0.00 | 0.31 | 0.00 | 93 | 1012.9 |
| 20260510133837 | 58 | 153 | 0.0 | 2.0 | 0.00 | 0.31 | 0.00 | 94 | 1013.1 |
| 20260510133558 | 58 | 189 | 0.0 | 2.0 | 0.00 | 0.31 | 0.00 | 96 | 1013.1 |
| 20260510132837 | 57 | 194 | 0.0 | 2.0 | 0.00 | 0.31 | 0.00 | 96 | 1013.1 |
| 20260510132335 | 56 | 194 | 0.0 | 2.0 | 0.00 | 0.31 | 0.00 | 96 | 1013.0 |
| 20260510132105 | 56 | 194 | 0.0 | 2.0 | 0.00 | 0.31 | 0.00 | 96 | 1013.0 |
| 20260510131335 | 56 | 179 | 0.0 | 0.0 | 0.00 | 0.31 | 0.00 | 97 | 1013.0 |
| 20260510130845 | 55 | 179 | 0.0 | 0.0 | 0.00 | 0.31 | 0.00 | 97 | 1012.9 |
| 20260510130334 | 55 | 180 | 0.0 | 0.0 | 0.00 | 0.31 | 0.00 | 96 | 1012.9 |
| 20260510125558 | 54 | 179 | 0.0 | 0.0 | 0.00 | 0.31 | 0.00 | 96 | 1012.6 |
| 20260510124830 | 54 | 179 | 0.0 | 0.0 | 0.00 | 0.31 | 0.00 | 97 | 1012.6 |
| 20260510124329 | 54 | 179 | 0.0 | 0.0 | 0.00 | 0.31 | 0.00 | 97 | 1012.6 |
| 20260510123826 | 53 | 180 | 0.0 | 0.0 | 0.00 | 0.31 | 0.00 | 96 | 1012.5 |
| 20260510123549 | 53 | 180 | 0.0 | 0.0 | 0.00 | 0.31 | 0.00 | 96 | 1012.7 |
| 20260510122823 | 54 | 179 | 0.0 | 0.0 | 0.00 | 0.31 | 0.00 | 97 | 1012.5 |
| 20260510122320 | 53 | 179 | 0.0 | 0.0 | 0.00 | 0.31 | 0.00 | 97 | 1012.6 |
| 20260510121821 | 53 | 179 | 0.0 | 0.0 | 0.00 | 0.31 | 0.00 | 97 | 1012.4 |
| 20260510121321 | 53 | 179 | 0.0 | 0.0 | 0.00 | 0.31 | 0.00 | 96 | 1012.6 |
| 20260510120819 | 53 | 179 | 0.0 | 0.0 | 0.00 | 0.31 | 0.00 | 97 | 1012.4 |
| 20260510120315 | 53 | 179 | 0.0 | 0.0 | 0.00 | 0.31 | 0.00 | 97 | 1012.3 |
| 20260510115816 | 52 | 179 | 0.0 | 1.0 | 0.00 | 0.31 | 0.00 | 96 | 1012.3 |
| 20260510115318 | 52 | 179 | 0.0 | 1.0 | 0.00 | 0.31 | 0.00 | 96 | 1012.2 |
| 20260510114812 | 52 | 179 | 0.0 | 1.0 | 0.00 | 0.31 | 0.00 | 96 | 1012.0 |
| 20260510114306 | 52 | 179 | 0.0 | 1.0 | 0.00 | 0.31 | 0.00 | 96 | 1012.1 |
| 20260510113756 | 52 | 179 | 0.0 | 1.0 | 0.00 | 0.31 | 0.00 | 96 | 1012.0 |
| 20260510113250 | 51 | 179 | 0.0 | 2.0 | 0.00 | 0.31 | 0.00 | 96 | 1012.2 |
| 20260510112744 | 51 | 179 | 0.0 | 2.0 | 0.00 | 0.31 | 0.00 | 96 | 1012.2 |
| 20260510112234 | 52 | 179 | 0.0 | 1.0 | 0.00 | 0.31 | 0.00 | 96 | 1012.1 |
| 20260510111728 | 51 | 179 | 0.0 | 1.0 | 0.00 | 0.31 | 0.00 | 96 | 1012.1 |
| 20260510111444 | 51 | 179 | 0.0 | 1.0 | 0.00 | 0.31 | 0.00 | 96 | 1012.0 |
| 20260510110712 | 51 | 179 | 0.0 | 2.0 | 0.00 | 0.31 | 0.00 | 96 | 1011.9 |
| 20260510110649 | 51 | 179 | 0.0 | 2.0 | 0.00 | 0.31 | 0.00 | 96 | 1011.8 |
| 20260510105700 | 51 | 179 | 0.0 | 1.0 | 0.00 | 0.31 | 0.00 | 96 | 1012.0 |
| 20260510105150 | 51 | 179 | 0.0 | 1.0 | 0.00 | 0.31 | 0.00 | 96 | 1011.9 |
| 20260510104644 | 51 | 179 | 0.0 | 1.0 | 0.00 | 0.31 | 0.00 | 96 | 1011.8 |
| 20260510104407 | 51 | 179 | 0.0 | 1.0 | 0.00 | 0.31 | 0.00 | 96 | 1011.7 |
| 20260510103627 | 51 | 179 | 0.0 | 1.0 | 0.00 | 0.31 | 0.00 | 96 | 1011.6 |
| 20260510103122 | 51 | 179 | 0.0 | 0.0 | 0.00 | 0.31 | 0.00 | 96 | 1011.5 |
| 20260510102615 | 51 | 179 | 0.0 | 0.0 | 0.00 | 0.31 | 0.00 | 96 | 1011.6 |
| 20260510102106 | 51 | 179 | 0.0 | 0.0 | 0.00 | 0.31 | 0.00 | 96 | 1011.7 |
| 20260510101559 | 51 | 179 | 0.0 | 0.0 | 0.00 | 0.31 | 0.00 | 96 | 1011.7 |
| 20260510101543 | 51 | 179 | 0.0 | 0.0 | 0.00 | 0.31 | 0.00 | 96 | 1011.7 |
| 20260510100549 | 51 | 179 | 0.0 | 0.0 | 0.00 | 0.31 | 0.00 | 96 | 1011.6 |
| 20260510100044 | 51 | 179 | 0.0 | 0.0 | 0.00 | 0.31 | 0.00 | 96 | 1011.7 |
| 20260510095545 | 51 | 179 | 0.0 | 0.0 | 0.00 | 0.31 | 0.00 | 96 | 1011.7 |
| 20260510095044 | 51 | 179 | 0.0 | 0.0 | 0.00 | 0.31 | 0.00 | 96 | 1011.7 |
| 20260510094545 | 51 | 179 | 0.0 | 0.0 | 0.00 | 0.31 | 0.00 | 96 | 1011.7 |
| 20260510094300 | 51 | 179 | 0.0 | 0.0 | 0.00 | 0.31 | 0.00 | 96 | 1011.8 |
| 20260510093808 | 51 | 179 | 0.0 | 1.0 | 0.00 | 0.31 | 0.00 | 96 | 1011.7 |
| 20260510093038 | 51 | 179 | 0.0 | 1.0 | 0.00 | 0.31 | 0.00 | 96 | 1011.6 |
| 20260510092537 | 51 | 177 | 0.0 | 0.0 | 0.00 | 0.31 | 0.00 | 96 | 1011.5 |
| 20260510092038 | 51 | 177 | 0.0 | 0.0 | 0.00 | 0.31 | 0.00 | 96 | 1011.6 |
| 20260510091539 | 51 | 177 | 0.0 | 0.0 | 0.00 | 0.31 | 0.00 | 96 | 1011.7 |
| 20260510091035 | 51 | 177 | 0.0 | 0.0 | 0.00 | 0.31 | 0.00 | 96 | 1011.8 |
| 20260510090534 | 51 | 176 | 0.0 | 0.0 | 0.00 | 0.31 | 0.00 | 96 | 1011.8 |
| 20260510090035 | 51 | 176 | 0.0 | 0.0 | 0.00 | 0.31 | 0.00 | 96 | 1011.9 |
| 20260510085034 | 51 | 176 | 0.0 | 0.0 | 0.00 | 0.31 | 0.00 | 96 | 1012.0 |
| 20260510084528 | 51 | 176 | 0.0 | 0.0 | 0.00 | 0.31 | 0.00 | 96 | 1012.1 |
| 20260510084028 | 51 | 176 | 0.0 | 0.0 | 0.00 | 0.31 | 0.00 | 96 | 1012.1 |
| 20260510083527 | 51 | 176 | 0.0 | 0.0 | 0.00 | 0.31 | 0.00 | 95 | 1012.0 |
| 20260510083023 | 51 | 176 | 0.0 | 0.0 | 0.00 | 0.31 | 0.00 | 95 | 1012.0 |
| 20260510082521 | 51 | 176 | 0.0 | 1.0 | 0.00 | 0.31 | 0.00 | 95 | 1012.0 |
| 20260510082019 | 51 | 176 | 0.0 | 1.0 | 0.00 | 0.31 | 0.00 | 95 | 1012.1 |
| 20260510081517 | 51 | 176 | 0.0 | 1.0 | 0.00 | 0.31 | 0.00 | 95 | 1012.1 |
| 20260510081018 | 51 | 176 | 0.0 | 3.0 | 0.00 | 0.31 | 0.00 | 95 | 1011.9 |
| 20260510080514 | 51 | 177 | 0.0 | 3.0 | 0.00 | 0.31 | 0.00 | 95 | 1011.8 |
| 20260510080455 | 51 | 177 | 0.0 | 3.0 | 0.00 | 0.31 | 0.00 | 95 | 1012.0 |
| 20260510075510 | 51 | 175 | 0.0 | 3.0 | 0.00 | 0.31 | 0.00 | 95 | 1011.8 |
| 20260510075008 | 51 | 184 | 0.0 | 0.0 | 0.00 | 0.31 | 0.00 | 95 | 1011.6 |
| 20260510074731 | 51 | 184 | 0.0 | 0.0 | 0.00 | 0.31 | 0.00 | 95 | 1011.3 |
| 20260510074007 | 51 | 184 | 0.0 | 0.0 | 0.00 | 0.31 | 0.00 | 95 | 1011.3 |
| 20260510073505 | 51 | 184 | 0.0 | 0.0 | 0.00 | 0.31 | 0.00 | 95 | 1011.3 |
| 20260510073005 | 51 | 184 | 0.0 | 0.0 | 0.00 | 0.31 | 0.00 | 95 | 1011.3 |
| 20260510072729 | 51 | 184 | 0.0 | 0.0 | 0.00 | 0.31 | 0.00 | 95 | 1011.2 |
| 20260510072005 | 51 | 184 | 0.0 | 0.0 | 0.00 | 0.31 | 0.00 | 95 | 1011.2 |
| 20260510071505 | 51 | 184 | 0.0 | 0.0 | 0.00 | 0.31 | 0.00 | 95 | 1011.2 |
| 20260510071002 | 51 | 184 | 0.0 | 0.0 | 0.00 | 0.31 | 0.00 | 95 | 1011.2 |
| 20260510070516 | 52 | 184 | 0.0 | 0.0 | 0.00 | 0.31 | 0.00 | 95 | 1011.3 |
| 20260510070001 | 52 | 184 | 0.0 | 0.0 | 0.00 | 0.31 | 0.00 | 95 | 1011.3 |
| 20260510065717 | 52 | 184 | 0.0 | 0.0 | 0.00 | 0.31 | 0.00 | 95 | 1011.5 |
| 20260510065001 | 52 | 184 | 0.0 | 0.0 | 0.00 | 0.31 | 0.00 | 95 | 1011.4 |
| 20260510064457 | 52 | 184 | 0.0 | 0.0 | 0.00 | 0.31 | 0.00 | 95 | 1011.4 |
| 20260510063954 | 52 | 184 | 0.0 | 0.0 | 0.00 | 0.31 | 0.00 | 95 | 1011.4 |
| 20260510063453 | 52 | 184 | 0.0 | 0.0 | 0.00 | 0.31 | 0.00 | 95 | 1011.5 |
| 20260510062950 | 52 | 184 | 0.0 | 0.0 | 0.00 | 0.31 | 0.00 | 95 | 1011.5 |
| 20260510062454 | 52 | 184 | 0.0 | 0.0 | 0.00 | 0.31 | 0.00 | 95 | 1011.4 |
| 20260510061958 | 52 | 184 | 0.0 | 0.0 | 0.00 | 0.31 | 0.00 | 95 | 1011.3 |
| 20260510061447 | 52 | 184 | 0.0 | 0.0 | 0.00 | 0.31 | 0.00 | 95 | 1011.3 |
| 20260510060946 | 52 | 184 | 0.0 | 0.0 | 0.00 | 0.31 | 0.00 | 95 | 1011.2 |
| 20260510060454 | 52 | 184 | 0.0 | 0.0 | 0.00 | 0.31 | 0.00 | 96 | 1011.0 |
| 20260510055948 | 52 | 184 | 0.0 | 0.0 | 0.00 | 0.31 | 0.00 | 96 | 1011.1 |
| 20260510055941 | 52 | 184 | 0.0 | 0.0 | 0.00 | 0.31 | 0.00 | 96 | 1011.0 |
| 20260510054943 | 51 | 184 | 0.0 | 0.0 | 0.00 | 0.31 | 0.00 | 95 | 1011.1 |
| 20260510054442 | 51 | 184 | 0.0 | 0.0 | 0.00 | 0.31 | 0.00 | 95 | 1011.0 |
| 20260510053942 | 51 | 184 | 0.0 | 0.0 | 0.00 | 0.31 | 0.00 | 95 | 1011.0 |
| 20260510053441 | 51 | 184 | 0.0 | 0.0 | 0.00 | 0.31 | 0.00 | 95 | 1011.0 |
| 20260510052942 | 51 | 184 | 0.0 | 0.0 | 0.00 | 0.31 | 0.00 | 95 | 1011.0 |
| 20260510052441 | 51 | 184 | 0.0 | 0.0 | 0.00 | 0.31 | 0.00 | 95 | 1011.0 |
| 20260510051941 | 51 | 184 | 0.0 | 0.0 | 0.00 | 0.31 | 0.00 | 95 | 1011.1 |
| 20260510051710 | 51 | 184 | 0.0 | 0.0 | 0.00 | 0.31 | 0.00 | 95 | 1011.1 |
| 20260510051214 | 51 | 184 | 0.0 | 0.0 | 0.00 | 0.31 | 0.00 | 95 | 1011.2 |
| 20260510050441 | 51 | 184 | 0.0 | 0.0 | 0.00 | 0.31 | 0.00 | 95 | 1011.2 |
| 20260510045942 | 51 | 184 | 0.0 | 0.0 | 0.00 | 0.31 | 0.00 | 95 | 1011.2 |
| 20260510045441 | 51 | 184 | 0.0 | 0.0 | 0.00 | 0.31 | 0.00 | 95 | 1011.1 |
| 20260510044943 | 51 | 184 | 0.0 | 0.0 | 0.00 | 0.31 | 0.00 | 95 | 1011.3 |
| 20260510044708 | 51 | 184 | 0.0 | 0.0 | 0.00 | 0.31 | 0.00 | 95 | 1011.2 |
| 20260510043938 | 51 | 184 | 0.0 | 0.0 | 0.00 | 0.31 | 0.00 | 95 | 1011.2 |
| 20260510043438 | 51 | 184 | 0.0 | 0.0 | 0.00 | 0.31 | 0.00 | 95 | 1011.2 |
| 20260510043206 | 51 | 184 | 0.0 | 0.0 | 0.00 | 0.31 | 0.00 | 95 | 1011.3 |
| 20260510042437 | 51 | 184 | 0.0 | 0.0 | 0.00 | 0.31 | 0.00 | 95 | 1011.2 |
| 20260510041937 | 51 | 184 | 0.0 | 0.0 | 0.00 | 0.31 | 0.00 | 95 | 1011.2 |
| 20260510041700 | 51 | 184 | 0.0 | 0.0 | 0.00 | 0.31 | 0.00 | 95 | 1011.3 |
| 20260510040935 | 51 | 184 | 0.0 | 0.0 | 0.00 | 0.31 | 0.00 | 94 | 1011.2 |
| 20260510040434 | 51 | 184 | 0.0 | 0.0 | 0.00 | 0.31 | 0.00 | 95 | 1011.2 |
| 20260510035932 | 51 | 184 | 0.0 | 0.0 | 0.00 | 0.31 | 0.31 | 95 | 1011.2 |
| 20260510035426 | 51 | 184 | 0.0 | 0.0 | 0.00 | 0.31 | 0.31 | 95 | 1011.2 |
| 20260510034925 | 51 | 184 | 0.0 | 0.0 | 0.00 | 0.31 | 0.31 | 95 | 1011.3 |
| 20260510034420 | 51 | 184 | 0.0 | 0.0 | 0.00 | 0.31 | 0.31 | 95 | 1011.1 |
| 20260510033918 | 51 | 184 | 0.0 | 0.0 | 0.00 | 0.31 | 0.31 | 95 | 1011.1 |
| 20260510033414 | 52 | 184 | 0.0 | 0.0 | 0.00 | 0.31 | 0.31 | 95 | 1010.9 |
| 20260510033132 | 52 | 184 | 0.0 | 0.0 | 0.00 | 0.31 | 0.31 | 95 | 1011.0 |
| 20260510032412 | 52 | 184 | 0.0 | 0.0 | 0.00 | 0.31 | 0.31 | 95 | 1011.1 |
| 20260510031908 | 51 | 184 | 0.0 | 0.0 | 0.00 | 0.31 | 0.31 | 95 | 1011.0 |
| 20260510031408 | 51 | 184 | 0.0 | 0.0 | 0.00 | 0.31 | 0.31 | 95 | 1010.8 |
| 20260510030905 | 51 | 184 | 0.0 | 0.0 | 0.00 | 0.31 | 0.31 | 95 | 1010.8 |
| 20260510030405 | 51 | 184 | 0.0 | 0.0 | 0.00 | 0.31 | 0.31 | 95 | 1010.9 |
| 20260510025902 | 51 | 184 | 0.0 | 0.0 | 0.00 | 0.31 | 0.31 | 95 | 1010.9 |
| 20260510025400 | 51 | 184 | 0.0 | 0.0 | 0.00 | 0.31 | 0.31 | 95 | 1010.8 |
| 20260510024858 | 51 | 184 | 0.0 | 0.0 | 0.00 | 0.31 | 0.31 | 94 | 1010.8 |
| 20260510024355 | 51 | 184 | 0.0 | 0.0 | 0.00 | 0.31 | 0.31 | 94 | 1010.9 |
| 20260510024122 | 51 | 184 | 0.0 | 0.0 | 0.00 | 0.31 | 0.31 | 94 | 1010.9 |
| 20260510023351 | 51 | 184 | 0.0 | 0.0 | 0.00 | 0.31 | 0.31 | 94 | 1010.8 |
| 20260510022850 | 51 | 184 | 0.0 | 0.0 | 0.00 | 0.31 | 0.31 | 94 | 1011.0 |
| 20260510022349 | 51 | 184 | 0.0 | 0.0 | 0.00 | 0.31 | 0.31 | 94 | 1011.0 |
| 20260510021849 | 51 | 184 | 0.0 | 0.0 | 0.00 | 0.31 | 0.31 | 94 | 1011.0 |
| 20260510021610 | 51 | 184 | 0.0 | 0.0 | 0.00 | 0.31 | 0.31 | 94 | 1011.0 |
| 20260510020831 | 51 | 184 | 0.0 | 0.0 | 0.00 | 0.31 | 0.31 | 94 | 1011.0 |
| 20260510020326 | 51 | 184 | 0.0 | 0.0 | 0.00 | 0.31 | 0.31 | 93 | 1011.0 |
| 20260510015826 | 51 | 184 | 0.0 | 0.0 | 0.00 | 0.31 | 0.31 | 93 | 1011.0 |
| 20260510015532 | 51 | 184 | 0.0 | 0.0 | 0.00 | 0.31 | 0.31 | 93 | 1010.9 |
| 20260510014805 | 51 | 184 | 0.0 | 0.0 | 0.00 | 0.31 | 0.31 | 93 | 1010.9 |
| 20260510014259 | 52 | 184 | 0.0 | 0.0 | 0.00 | 0.31 | 0.31 | 93 | 1011.0 |
| 20260510013749 | 52 | 184 | 0.0 | 0.0 | 0.00 | 0.31 | 0.31 | 93 | 1010.9 |
| 20260510013242 | 52 | 184 | 0.0 | 0.0 | 0.00 | 0.31 | 0.31 | 93 | 1011.1 |
| 20260510012735 | 52 | 184 | 0.0 | 0.0 | 0.00 | 0.31 | 0.31 | 93 | 1011.1 |
| 20260510012227 | 52 | 184 | 0.0 | 0.0 | 0.00 | 0.31 | 0.31 | 93 | 1010.9 |
| 20260510011721 | 53 | 184 | 0.0 | 0.0 | 0.00 | 0.31 | 0.31 | 93 | 1010.9 |
| 20260510011215 | 53 | 184 | 0.0 | 0.0 | 0.00 | 0.31 | 0.31 | 93 | 1010.8 |
| 20260510010705 | 53 | 184 | 0.0 | 0.0 | 0.00 | 0.31 | 0.31 | 93 | 1010.8 |
| 20260510010159 | 53 | 184 | 0.0 | 0.0 | 0.00 | 0.31 | 0.31 | 93 | 1010.6 |
| 20260510005653 | 53 | 184 | 0.0 | 0.0 | 0.00 | 0.31 | 0.31 | 93 | 1010.4 |
| 20260510005143 | 53 | 184 | 0.0 | 0.0 | 0.00 | 0.31 | 0.31 | 93 | 1010.3 |
| 20260510004638 | 53 | 184 | 0.0 | 0.0 | 0.00 | 0.31 | 0.31 | 93 | 1010.3 |
| 20260510004355 | 53 | 184 | 0.0 | 0.0 | 0.00 | 0.31 | 0.31 | 93 | 1010.3 |
| 20260510003621 | 53 | 184 | 0.0 | 0.0 | 0.00 | 0.31 | 0.31 | 93 | 1010.3 |
| 20260510003342 | 54 | 184 | 0.0 | 0.0 | 0.00 | 0.31 | 0.31 | 93 | 1010.2 |
| 20260510002608 | 54 | 184 | 0.0 | 0.0 | 0.00 | 0.31 | 0.31 | 93 | 1010.2 |
| 20260510002548 | 54 | 184 | 0.0 | 0.0 | 0.00 | 0.31 | 0.31 | 93 | 1010.3 |
| 20260510001553 | 54 | 184 | 0.0 | 0.0 | 0.00 | 0.31 | 0.31 | 93 | 1010.3 |
| 20260510001047 | 55 | 184 | 0.0 | 0.0 | 0.00 | 0.31 | 0.31 | 93 | 1010.3 |
| 20260510000537 | 55 | 184 | 0.0 | 0.0 | 0.00 | 0.31 | 0.31 | 93 | 1010.3 |
| 20260510000031 | 55 | 184 | 0.0 | 0.0 | 0.00 | 0.31 | 0.31 | 93 | 1010.3 |
| 20260509235524 | 55 | 184 | 0.0 | 0.0 | 0.00 | 0.31 | 0.31 | 93 | 1010.2 |
| 20260509235014 | 55 | 184 | 0.0 | 0.0 | 0.00 | 0.31 | 0.31 | 93 | 1010.2 |
| 20260509234509 | 55 | 184 | 0.0 | 0.0 | 0.00 | 0.31 | 0.31 | 93 | 1010.1 |
| 20260509234002 | 55 | 184 | 0.0 | 0.0 | 0.00 | 0.31 | 0.31 | 93 | 1010.0 |
| 20260509233453 | 55 | 184 | 0.0 | 0.0 | 0.00 | 0.31 | 0.31 | 93 | 1009.9 |
| 20260509232947 | 55 | 184 | 0.0 | 3.0 | 0.00 | 0.31 | 0.31 | 93 | 1009.9 |
| 20260509232707 | 56 | 184 | 0.0 | 3.0 | 0.00 | 0.31 | 0.31 | 93 | 1009.9 |
| 20260509231931 | 56 | 184 | 0.0 | 3.0 | 0.00 | 0.31 | 0.31 | 93 | 1009.9 |
| 20260509231425 | 56 | 184 | 1.0 | 3.0 | 0.00 | 0.31 | 0.31 | 93 | 1009.9 |
| 20260509230919 | 56 | 200 | 0.0 | 2.0 | 0.00 | 0.31 | 0.31 | 93 | 1009.9 |
| 20260509230422 | 56 | 202 | 0.0 | 2.0 | 0.00 | 0.31 | 0.31 | 94 | 1010.0 |
| 20260509230124 | 55 | 202 | 0.0 | 2.0 | 0.00 | 0.31 | 0.31 | 93 | 1010.0 |
| 20260509225357 | 55 | 202 | 0.0 | 2.0 | 0.00 | 0.31 | 0.31 | 93 | 1010.0 |
| 20260509224847 | 55 | 197 | 0.0 | 1.0 | 0.00 | 0.31 | 0.31 | 93 | 1010.0 |
| 20260509224341 | 55 | 200 | 0.0 | 1.0 | 0.00 | 0.31 | 0.31 | 93 | 1010.1 |
| 20260509223835 | 55 | 200 | 0.0 | 1.0 | 0.00 | 0.31 | 0.31 | 93 | 1010.3 |
| 20260509223325 | 55 | 201 | 0.0 | 3.0 | 0.00 | 0.31 | 0.31 | 93 | 1010.4 |
| 20260509222819 | 55 | 204 | 0.0 | 3.0 | 0.03 | 0.31 | 0.31 | 93 | 1010.6 |
| 20260509222313 | 55 | 203 | 0.0 | 3.0 | 0.05 | 0.31 | 0.31 | 93 | 1010.4 |
| 20260509221803 | 55 | 207 | 1.0 | 3.0 | 0.07 | 0.31 | 0.31 | 93 | 1010.3 |
| 20260509221257 | 55 | 168 | 1.0 | 3.0 | 0.09 | 0.31 | 0.31 | 93 | 1010.2 |
| 20260509220751 | 55 | 153 | 0.0 | 3.0 | 0.10 | 0.31 | 0.31 | 93 | 1010.3 |
| 20260509220457 | 55 | 63 | 0.0 | 2.0 | 0.11 | 0.31 | 0.31 | 93 | 1010.3 |
| 20260509215735 | 55 | 63 | 0.0 | 3.0 | 0.12 | 0.31 | 0.31 | 93 | 1010.4 |
| 20260509215229 | 55 | 63 | 0.0 | 3.0 | 0.13 | 0.31 | 0.31 | 93 | 1010.3 |
| 20260509214718 | 55 | 74 | 0.0 | 3.0 | 0.13 | 0.31 | 0.31 | 93 | 1010.5 |
| 20260509214213 | 55 | 74 | 0.0 | 2.0 | 0.14 | 0.31 | 0.31 | 93 | 1010.5 |
| 20260509213707 | 55 | 74 | 0.0 | 2.0 | 0.15 | 0.31 | 0.31 | 93 | 1010.5 |
| 20260509213417 | 55 | 74 | 0.0 | 2.0 | 0.14 | 0.29 | 0.30 | 92 | 1010.3 |
| 20260509212651 | 55 | 74 | 0.0 | 2.0 | 0.13 | 0.28 | 0.28 | 92 | 1010.4 |
| 20260509212144 | 55 | 76 | 0.0 | 2.0 | 0.11 | 0.25 | 0.26 | 92 | 1010.6 |
| 20260509211635 | 55 | 76 | 0.0 | 1.0 | 0.09 | 0.23 | 0.24 | 92 | 1010.6 |
| 20260509211620 | 55 | 76 | 0.0 | 1.0 | 0.08 | 0.22 | 0.22 | 92 | 1010.5 |
| 20260509211059 | 55 | 76 | 0.0 | 1.0 | 0.08 | 0.21 | 0.21 | 92 | 1010.4 |
| 20260509210118 | 55 | 76 | 0.0 | 1.0 | 0.08 | 0.20 | 0.20 | 92 | 1010.5 |
| 20260509205607 | 55 | 76 | 0.0 | 1.0 | 0.07 | 0.19 | 0.19 | 91 | 1010.4 |
| 20260509205101 | 55 | 76 | 0.0 | 1.0 | 0.07 | 0.18 | 0.18 | 91 | 1010.3 |
| 20260509204555 | 55 | 76 | 0.0 | 2.0 | 0.07 | 0.17 | 0.17 | 91 | 1010.2 |
| 20260509204043 | 55 | 76 | 0.0 | 3.0 | 0.08 | 0.16 | 0.16 | 91 | 1010.4 |
| 20260509203542 | 55 | 76 | 0.0 | 3.0 | 0.09 | 0.16 | 0.16 | 91 | 1010.3 |
| 20260509203047 | 55 | 187 | 0.0 | 2.0 | 0.13 | 0.15 | 0.15 | 91 | 1010.4 |
| 20260509202544 | 55 | 187 | 0.0 | 2.0 | 0.12 | 0.14 | 0.14 | 91 | 1010.5 |
| 20260509202044 | 55 | 187 | 0.0 | 2.0 | 0.12 | 0.14 | 0.14 | 91 | 1010.5 |
| 20260509201542 | 55 | 187 | 0.0 | 2.0 | 0.13 | 0.14 | 0.14 | 91 | 1010.6 |
| 20260509201258 | 55 | 187 | 0.0 | 2.0 | 0.13 | 0.14 | 0.14 | 91 | 1010.5 |
| 20260509200538 | 55 | 187 | 0.0 | 2.0 | 0.12 | 0.13 | 0.13 | 90 | 1010.7 |
| 20260509200038 | 56 | 187 | 0.0 | 2.0 | 0.11 | 0.12 | 0.12 | 90 | 1010.9 |
| 20260509195535 | 56 | 186 | 0.0 | 2.0 | 0.11 | 0.12 | 0.12 | 90 | 1010.9 |
| 20260509195253 | 56 | 186 | 1.0 | 4.0 | 0.10 | 0.11 | 0.11 | 89 | 1010.9 |
| 20260509194532 | 56 | 186 | 1.0 | 4.0 | 0.09 | 0.10 | 0.10 | 88 | 1010.9 |
| 20260509194032 | 56 | 186 | 1.0 | 4.0 | 0.07 | 0.08 | 0.09 | 87 | 1011.2 |
| 20260509193754 | 57 | 198 | 1.0 | 4.0 | 0.06 | 0.07 | 0.08 | 87 | 1011.2 |
| 20260509193033 | 57 | 161 | 1.0 | 4.0 | 0.01 | 0.02 | 0.02 | 86 | 1011.1 |
| 20260509192528 | 57 | 148 | 1.0 | 4.0 | 0.01 | 0.02 | 0.02 | 85 | 1011.2 |
| 20260509192020 | 57 | 148 | 1.0 | 4.0 | 0.01 | 0.02 | 0.02 | 85 | 1011.0 |
| 20260509191523 | 58 | 119 | 1.0 | 3.0 | 0.01 | 0.01 | 0.01 | 85 | 1010.9 |
| 20260509191022 | 58 | 111 | 1.0 | 3.0 | 0.01 | 0.01 | 0.01 | 85 | 1011.0 |
| 20260509190747 | 58 | 350 | 0.0 | 3.0 | 0.01 | 0.01 | 0.01 | 86 | 1010.9 |
| 20260509190243 | 58 | 346 | 1.0 | 3.0 | 0.01 | 0.01 | 0.01 | 86 | 1010.9 |
| 20260509185523 | 57 | 227 | 1.0 | 3.0 | 0.01 | 0.01 | 0.01 | 85 | 1011.1 |
| 20260509185019 | 57 | 184 | 0.0 | 3.0 | 0.01 | 0.01 | 0.01 | 85 | 1010.9 |
| 20260509184519 | 58 | 185 | 0.0 | 3.0 | 0.01 | 0.01 | 0.01 | 85 | 1010.8 |
| 20260509184018 | 58 | 130 | 1.0 | 2.0 | 0.01 | 0.01 | 0.01 | 84 | 1010.7 |
| 20260509183520 | 58 | 110 | 1.0 | 4.0 | 0.01 | 0.01 | 0.01 | 84 | 1010.7 |
| 20260509183018 | 58 | 189 | 0.0 | 4.0 | 0.01 | 0.01 | 0.01 | 83 | 1010.7 |
| 20260509182801 | 59 | 190 | 1.0 | 4.0 | 0.01 | 0.01 | 0.01 | 82 | 1011.1 |
| 20260509182236 | 59 | 154 | 1.0 | 4.0 | 0.01 | 0.01 | 0.01 | 80 | 1011.2 |
| 20260509181744 | 60 | 70 | 1.0 | 5.0 | 0.00 | 0.00 | 0.00 | 80 | 1011.4 |
| 20260509181016 | 60 | 92 | 1.0 | 5.0 | 0.00 | 0.00 | 0.00 | 78 | 1011.4 |
| 20260509180517 | 60 | 191 | 1.0 | 6.0 | 0.00 | 0.00 | 0.00 | 78 | 1011.5 |
| 20260509180504 | 61 | 214 | 1.0 | 6.0 | 0.00 | 0.00 | 0.00 | 76 | 1011.4 |